Regional Weather Roundup
Issued by NWS

Home | Current Version | Previous Version | Text Only | Print | Product List | Glossary On
Versions: 1 2 3 4 5 6 7 8 9 10 11 12 13 14 15 16 17 18 19 20 21 22 23 24 25 26 27 28 29 30 31 32 33 34 35 36 37 38 39 40 41 42 43 44 45 46 47 48 49 50
285
ASUS44 KJAN 221003
RWRMS

MISSISSIPPI HOURLY WEATHER ROUNDUP
NATIONAL WEATHER SERVICE JACKSON MS
500 AM CDT MON SEP 22 2014

NOTE: "FAIR: INDICATES FEW OR NO CLOUDS BELOW 12,000 FEET WITH NO
SIGNIFICANT WEATHER AND/OR OBSTRUCTIONS TO VISIBILITY.

MSZ001>002-007>008-010>013-018>021-025>028-034>036-221100-
NORTHWEST MISSISSIPPI

CITY           SKY/WX    TMP DP  RH WIND       PRES   REMARKS
CLARKSDALE       N/A     59  55  88 CALM      30.14R
CLEVELAND      FAIR      64  55  72 N8        30.11R HAZE
GREENWOOD      CLOUDY    66  58  75 N7        30.09R
GREENVILLE     MOCLDY    69  52  54 N12       30.10R
GRENADA        FAIR      64  54  68 N5        30.11R
OLIVE BRANCH   CLEAR     59  55  88 N6        30.15R
OXFORD         FAIR      57  50  77 NE3       30.14R
TUNICA         SUNNY     55  54  94 N6        30.15R
$$

MSZ003>006-009-014>017-022>024-029>033-037>039-221100-
NORTHEAST MISSISSIPPI

CITY           SKY/WX    TMP DP  RH WIND       PRES   REMARKS
COLUMBUS AFB   PTCLDY    66  57  72 N6        30.07R
CORINTH          N/A     57  52  82 CALM      30.12R
GOLDN TRIANGLE MOCLDY    66  57  72 N6        30.07S
STARKVILLE     FAIR      68  57  68 N3        30.07S
TUPELO         CLEAR     60  52  74 NE8       30.10R
$$

MSZ040-058-221100-
CENTRAL MISSISSIPPI

CITY           SKY/WX    TMP DP  RH WIND       PRES   REMARKS
JACKSON INTL   CLOUDY    74  69  85 NE10      30.05R
JACKSON HAWKNS CLEAR     74  64  71 NE7       30.06R
MERIDIAN KEY   MOCLDY    73  67  81 N13       30.03S
MERIDIAN NAS   CLOUDY    72  66  81 N7        30.04R
RAYMOND        FAIR      72  66  83 CALM      30.05R
VICKSBURG      PTCLDY    71  60  68 N6        30.06R
$$

MSZ059>079-221100-
SOUTH MISSISSIPPI

CITY           SKY/WX    TMP DP  RH WIND       PRES   REMARKS
BROOKHAVEN     FAIR      72  68  88 CALM      30.05S
COLUMBIA       FAIR      64  64 100 CALM      30.01S
HATTIESBURG    PTCLDY    69  67  93 CALM      30.02R
MCCOMB         CLEAR     71  65  81 NW6       30.03R
NATCHEZ        CLEAR     72  68  88 N6        30.05R
PINE BELT      PTCLDY    68  63  83 W5        30.03R
$$

MSZ080>082-221100-
COASTAL MISSISSIPPI

CITY           SKY/WX    TMP DP  RH WIND       PRES   REMARKS
BILOXI         CLEAR     73  70  90 N2        30.00R
PASCAGOULA     CLEAR     65  65 100 CALM      30.00S FOG
GULFPORT       CLEAR     69  67  93 CALM      30.00R
$$



USA.gov is the U.S. government's official web portal to all federal, state and local government web resources and services.